Погода в Хаконе

Япония     35°12′52″N   139°04′05″E
темп.,
°C
ветер,
м/с
пор.,
м/с
влажн.,
%
обл.,
%
осадки,
мм/ч
давл.,
гПа
погр.,
м
15 мая, сб
сб1500:00+16зсз1190100 0.0 101619
03:00+15св2192100 0.0 101721
06:00+16всв1289100 0.0 101885
09:00+19вюв2278100 0.1 1019701
12:00+19юв237588 0.2 1018827
15:00+20ююв337677 0.6 1018858
18:00+18юз24858 0.3 1018334
21:00+15зюз2292100 0.4 101982
16 мая, вс
вс1600:00+15зюз2293100 0.0 101876
03:00+15зюз2294100 0.1 101668
06:00+15юз2291100 0.0 1017152
09:00+17юз2374100 0.0 1016607
12:00+16юз1284100 0.3 1014232
15:00+15зюз1294100 1.5 101399
18:00+16з2395100 0.2 1011123
21:00+16юз3899100 0.4 1010395
17 мая, пн
пн1700:00+17зюз51698100 0.9 10081067
03:00+18юз71898100 2.4 10051116
06:00+18юз71698100 0.3 1005914
09:00+19юз61698100 1.6 1005955
12:00+19зюз81797100 1.2 10041009
15:00+19юз61498100 2.4 1004862
18:00+19зюз41298100 0.4 1004671
21:00+19зюз3799100 0.7 1006586
18 мая, вт
вт1800:00+18зюз3899100 0.3 1005594
03:00+18зюз3698100 0.7 1005518
06:00+18зюз1399100 0.3 1007398
09:00+19ююв119885 0.4 1008198
12:00+21ю248899 0.3 1007571
15:00+19вюв249098 0.4 1008430
18:00+17в2295100 0.1 1009202
21:00+16в2297100 0.1 1011210
19 мая, ср
ср1900:00+15вюв1297100 0.1 1011215
03:00+15в1297100 0.2 1011174
06:00+15в1297100 0.3 1012161
09:00+16в129499 0.3 1014314
12:00+17в228793 0.1 1014562
15:00+16вюв2293100 0.3 1015294
18:00+15вюв1195100 0.1 1016158
21:00+15в119695 0.3 101886